Regional Weather Roundup
Issued by NWS

Home | Current Version | Previous Version | Graphics & Text | Print | Product List | Glossary On
Versions: 1 2 3 4 5 6 7 8 9 10 11 12 13 14 15 16 17 18 19 20 21 22 23 24 25 26 27 28 29 30 31 32 33 34 35 36 37 38 39 40 41 42 43 44 45 46 47 48 49 50
000
ASUS43 KOAX 240910
RWRNE

WEATHER ROUNDUP FOR NEBRASKA
NATIONAL WEATHER SERVICE OMAHA NE
400 AM CDT THU AUG 24 2017

NOTES: SATELLITE DATA IS BEING USED TO AUGMENT CLOUD COVER ABOVE
       12000 FEET.
       "FAIR" INDICATES FEW OR NO CLOUDS BELOW 12,000 FEET WITH NO
       SIGNIFICANT WEATHER AND/OR OBSTRUCTIONS TO VISIBILITY.


NEZ001>004-019>022-054>056-241000-
NEBRASKA PANHANDLE

CITY           SKY/WX    TMP DP  RH WIND       PRES   REMARKS
SCOTTSBLUFF    CLOUDY    64  52  64 NE3       30.00S
ALLIANCE       MOCLDY    60  55  83 NW3       29.99F
CHADRON        CLOUDY    63  54  72 W3        29.97S
GORDON         FAIR      68  60  76 CALM      29.98R
KIMBALL        CLOUDY    67  48  50 CALM      30.07S
SIDNEY         CLOUDY    63  52  67 E3        30.04R
$$

NEZ057>060-069>072-079>082-241000-
SOUTHWEST NEBRASKA

CITY           SKY/WX    TMP DP  RH WIND       PRES   REMARKS
NORTH PLATTE   CLEAR     68  57  68 VRB5      29.97F
IMPERIAL       CLOUDY    67  61  81 S12       30.00S
LEXINGTON      CLEAR     64  51  60 S8        30.00F
MCCOOK         CLEAR     66  54  65 S8        30.01R
OGALLALA       CLOUDY    64  61  90 SW3       29.99R
$$

NEZ005>010-023>029-035>040-094-241000-
NORTH CENTRAL NEBRASKA

CITY           SKY/WX    TMP DP  RH WIND       PRES   REMARKS
VALENTINE      CLOUDY    69  55  60 W3        29.94R
AINSWORTH      CLOUDY    66  51  58 SW9       29.95F
BROKEN BOW     CLEAR     66  51  58 S9        29.99S
O`NEILL        PTCLDY    66  55  68 S9        29.94F
ORD            CLEAR     62  52  69 S8        29.97F
THEDFORD       PTCLDY    65  52  61 NW5       30.00R
$$

NEZ041-046>049-061>064-073>077-083>087-241000-
SOUTH CENTRAL NEBRASKA

CITY           SKY/WX    TMP DP  RH WIND       PRES   REMARKS
GRAND ISLAND   CLEAR     62  55  77 S14       30.00F
AURORA         CLEAR     61  55  82 S9        30.01F
HASTINGS       CLEAR     60  53  77 S7        30.03S
HEBRON         CLEAR     63  55  75 S6        30.03F
HOLDREGE       CLEAR     60  51  72 S10       30.02S
KEARNEY        CLEAR     62  53  72 S12       30.01F
YORK           CLEAR     59  57  94 S7        30.02F
$$

NEZ011>018-030>034-042>045-241000-
NORTHEAST NEBRASKA

CITY           SKY/WX    TMP DP  RH WIND       PRES   REMARKS
NORFOLK        CLOUDY    63  56  78 S8        29.97F
ALBION         CLEAR     60  56  86 SE6       29.99F
BLAIR          CLOUDY    64  58  82 S9        30.02F
COLUMBUS       CLEAR     62  56  80 S8        30.01F
FREMONT        MOCLDY    64  56  75 S7        30.02S
TEKAMAH        CLOUDY    62  59  90 SE6       30.01S
WAYNE          CLEAR     60  58  92 S6        29.97F
$$

NEZ050>053-065>068-078-088>093-241000-
SOUTHEAST NEBRASKA

CITY           SKY/WX    TMP DP  RH WIND       PRES   REMARKS
LINCOLN        CLEAR     60  56  86 S8        30.03F
OMAHA EPPLEY   MOCLDY    66  58  75 SE8       30.03R
BEATRICE       CLEAR     62  57  83 S8        30.04F
FALLS CITY     CLEAR     61  57  87 S6        30.05S
NEBRASKA CITY  CLEAR     60  60 100 S7        30.04F
PLATTSMOUTH    CLEAR     61  57  86 S8        30.04S
$$

NEZ044-045-051>053-067-241000-
OMAHA AREA

CITY           SKY/WX    TMP DP  RH WIND       PRES   REMARKS
OMAHA EPPLEY   MOCLDY    66  58  75 SE8       30.03R
BLAIR          CLOUDY    64  58  82 S9        30.02F
FREMONT        MOCLDY    64  56  75 S7        30.02S
MILLARD        CLOUDY    64  59  83 SE5       30.03S
OFFUTT AFB     PTCLDY    58  57  95 S5        30.03R
PLATTSMOUTH    CLEAR     61  57  86 S8        30.04S
WAHOO          FAIR      58  57  96 S6        30.02S
$$



USA.gov is the U.S. government's official web portal to all federal, state and local government web resources and services.